Weather History for KMPV - March, 2012

Change the Weather History Date:

Tuesday, March 13, 2012

  Actual Average Record
Temperature  
Mean Temperature 51 °F 28 °F  
Max Temperature 64 °F 38 °F 64 °F (2012)
Min Temperature 37 °F 18 °F -6 °F (1998)
Degree Days  
Heating Degree Days 14 37  
Month to date heating degree days 428 515  
Since 1 July heating degree days 5493 6423  
Cooling Degree Days 0 0  
Month to date cooling degree days 0 0  
Year to date cooling degree days 0 0  
Moisture  
Dew Point 38 °F    
Average Humidity 67    
Maximum Humidity 85    
Minimum Humidity 49    
Precipitation  
Precipitation T in 0.07 in 1.00 in (1986)
Month to date precipitation 0.66 0.95  
Year to date precipitation 3.68 5.44  
Sea Level Pressure  
Sea Level Pressure 29.97 in    
Wind  
Wind Speed 4 mph (SW)    
Max Wind Speed 20 mph    
Max Gust Speed 28 mph    
Visibility 10 miles    
Events Rain    
T = Trace of Precipitation, MM = Missing Value Source: NWS Daily Summary

Daily Weather History Graph

Daily Weather History Graph

Search for Another Location

Airport or City:

Trip Planner

Search our weather history database for the weather conditions in past years. The results will help you decide how hot, cold, wet, or windy it might be!

Date:

Astronomy

Mar. 13, 2012 Rise Set
Actual Time 7:05 AM EDT 6:54 PM EDT
Civil Twilight 6:36 AM EDT 7:23 PM EDT
Nautical Twilight 6:02 AM EDT 7:57 PM EDT
Astronomical Twilight 5:28 AM EDT 8:31 PM EDT
Moon 12:37 AM EDT (3/13) 10:01 AM EDT (3/13)
Length of Visible Light 12h 46m
Length of Day
11h 49m
Waning Gibbous, 66% of the Moon is Illuminated
Mar 13
Waning Gibbous
Mar 14
Last Quarter
Mar 22
New
Mar 30
First Quarter
Apr 6
Full

Hourly Weather History & Observations

Time (EDT) Temp. Windchill Dew Point Humidity Pressure Visibility Wind Dir Wind Speed Gust Speed Precip Events Conditions
12:51 AM 41.0 °F - 34.0 °F 76% 30.10 in 10.0 mi Calm Calm - N/A   Overcast
1:51 AM 41.0 °F - 34.0 °F 76% 30.09 in 10.0 mi Calm Calm - 0.00 in   Overcast
2:51 AM 39.9 °F - 35.1 °F 83% 30.07 in 10.0 mi Calm Calm - N/A   Overcast
3:51 AM 41.0 °F - 34.0 °F 76% 30.04 in 10.0 mi Calm Calm - N/A   Overcast
4:51 AM 39.0 °F - 34.0 °F 82% 30.03 in 10.0 mi Calm Calm - N/A   Overcast
5:51 AM 39.0 °F - 35.1 °F 86% 30.00 in 10.0 mi Calm Calm - 0.00 in   Overcast
6:51 AM 39.0 °F - 35.1 °F 86% 30.01 in 10.0 mi Calm Calm - N/A   Overcast
7:51 AM 39.9 °F - 36.0 °F 86% 29.99 in 10.0 mi Calm Calm - N/A   Overcast
8:51 AM 51.1 °F - 37.0 °F 59% 29.97 in 10.0 mi Calm Calm - N/A   Partly Cloudy
9:51 AM 55.9 °F - 37.0 °F 49% 29.95 in 10.0 mi SSE 12.7 mph - N/A   Mostly Cloudy
10:51 AM 55.9 °F - 39.0 °F 53% 29.93 in 10.0 mi South 10.4 mph - N/A   Overcast
11:51 AM 55.0 °F - 45.0 °F 69% 29.91 in 10.0 mi South 8.1 mph 17.3 mph 0.00 in Rain Light Rain
12:51 PM 55.9 °F - 45.0 °F 67% 29.91 in 10.0 mi South 8.1 mph - 0.00 in Rain Light Rain
1:51 PM 60.1 °F - 48.0 °F 64% 29.89 in 10.0 mi SSW 10.4 mph - 0.00 in   Mostly Cloudy
2:51 PM 62.6 °F - 44.6 °F 52% 29.86 in 10.0 mi West 9.2 mph 24.2 mph N/A   Partly Cloudy
3:51 PM 61.0 °F - 42.1 °F 50% 29.89 in 10.0 mi West 5.8 mph - N/A   Mostly Cloudy
4:51 PM 61.0 °F - 41.0 °F 48% 29.90 in 10.0 mi West 8.1 mph - N/A   Scattered Clouds
5:51 PM 57.9 °F - 43.0 °F 58% 29.91 in 10.0 mi NNW 6.9 mph - N/A   Partly Cloudy
6:51 PM 51.1 °F - 41.0 °F 68% 29.95 in 10.0 mi Calm Calm - N/A   Clear
7:51 PM 51.1 °F - 39.0 °F 63% 29.98 in 10.0 mi Calm Calm - N/A   Clear
8:51 PM 46.0 °F 43.9 °F 37.0 °F 71% 29.99 in 10.0 mi SSW 4.6 mph - N/A   Clear
9:51 PM 45.0 °F 43.5 °F 36.0 °F 71% 29.99 in 10.0 mi SSE 3.5 mph - N/A   Clear
10:51 PM 43.0 °F - 36.0 °F 76% 29.99 in 10.0 mi Calm Calm - N/A   Partly Cloudy
11:51 PM 39.9 °F - 34.0 °F 79% 29.98 in 10.0 mi Calm Calm - N/A   Clear